Probability
0 1 1 1 1 1 1 1 1 0 0 0 0 0 0 0 0 0 0 0 0 0 0 0 0 0 0 0 0 0 0 0 0 0 0 0 0 0 0 0 0 0 0
0 0 1 1 1 0 0 0 0 0 0 0 0 0 0 0 0 0 0 0 0 0 0 0 0 0 0 0 0 0 0 0 0 0 0 0 0 0 0 0 0 0 0
0 0 0 0 0 0 0 0 0 0 0 0 0 0 0 0 0 0 0 0 0 0 0 0 0 0 0 0 0 0 0 0 0 0 0 0 0 0 0 0 0 0 0
0 0 0 0 0 0 0 0 0 0 0 0 0 0 0 0 0 0 0 0 0 0 0 0 0 0 0 0 0 0 0 0 0 0 0 0 0 0 0 0 0 0 0
0 0 0 0 0 0 0 0 0 0 0 0 0 0 0 0 0 0 0 0 0 0 0 0 0 0 0 0 0 0 0 0 0 0 0 0 0 0 0 0 0 0 0
0 0 0 0 0 0 1 1 0 0 0 0 0 0 0 0 0 0 0 0 0 0 0 0 0 0 0 0 0 0 0 0 0 0 0 0 0 0 0 0 0 0 0
0 0 0 1 1 1 2 2 1 1 1 0 0 0 0 0 0 0 0 0 0 0 0 0 0 0 0 0 0 0 0 0 0 0 0 0 0 0 0 0 0 0 0
0 1 2 3 3 2 3 3 3 2 2 1 1 0 0 0 0 0 0 0 0 0 0 0 0 0 0 0 0 0 0 0 0 0 0 0 0 0 0 0 0 0 0
2 4 5 6 5 4 3 2 2 3 3 2 1 0 0 0 0 0 0 0 0 0 0 0 0 0 0 0 0 0 0 0 0 0 0 0 0 0 0 0 0 0 0
5 6 7 7 6 4 3 1 2 3 3 3 1 0 0 0 0 0 0 0 0 0 0 0 0 0 0 0 0 0 0 0 0 0 0 0 0 0 0 0 0 0 0
6 6 7 6 4 3 2 1 2 3 3 2 1 0 0 0 0 0 0 0 0 0 0 0 0 0 0 0 0 0 0 0 0 0 0 0 0 0 0 0 0 0 0
6 7 8 6 4 2 1 1 1 2 2 2 1 0 0 0 0 0 0 0 0 0 0 0 0 0 0 0 0 0 0 0 0 0 0 0 0 0 0 0 0 0 0
6 6 7 6 4 3 1 0 0 1 1 1 0 0 0 0 0 0 0 0 0 0 0 0 0 0 0 0 0 0 0 0 0 0 0 0 0 0 0 0 0 0 0
5 5 5 4 4 3 1 0 0 0 0 0 0 0 0 0 0 0 0 0 0 0 0 0 0 0 0 0 0 0 0 0 0 0 0 0 0 0 0 0 0 0 0
4 3 2 3 3 3 2 1 0 0 0 0 0 0 0 0 0 0 0 0 0 0 0 0 0 0 0 0 0 0 0 0 0 0 0 0 0 0 0 0 0 0 0
1 1 1 2 4 4 4 2 1 0 0 0 0 0 0 0 0 0 0 0 0 0 0 0 0 0 0 0 0 0 0 0 0 0 0 0 0 0 0 0 0 0 0
0 0 1 2 3 4 3 2 2 1 0 0 0 0 0 0 0 0 0 0 0 0 0 0 0 0 0 0 0 0 0 0 0 0 0 0 0 0 0 0 0 0 0
0 0 0 1 1 1 1 1 1 1 0 0 0 0 0 0 0 0 0 0 0 0 0 0 0 0 0 0 0 0 0 0 0 0 0 0 0 0 0 0 0 0 0
0 0 0 0 0 0 0 0 0 0 0 0 0 0 0 0 0 0 0 0 0 0 0 0 0 0 0 0 0 0 0 0 0 0 0 0 0 0 0 0 0 0 0
0 0 0 0 0 0 0 0 0 0 0 0 0 0 0 0 0 0 0 0 0 0 0 0 0 0 0 0 0 0 0 0 0 0 0 0 0 0 0 0 0 0 0
0 0 0 0 0 0 0 0 0 0 0 0 0 0 0 0 0 0 0 0 0 0 0 0 0 0 0 0 0 0 0 0 0 0 0 0 0 0 0 0 0 0 0
0 0 0 0 0 0 0 0 0 0 0 0 0 0 0 0 0 0 0 0 0 0 0 0 0 0 0 0 0 0 0 0 0 0 0 0 0 0 0 0 0 1 1
0 0 0 0 0 0 0 0 0 0 0 0 0 0 0 0 0 0 0 0 0 0 0 0 0 0 0 0 0 0 0 0 0 0 0 0 0 0 0 0 0 1 2
0 0 0 0 0 0 0 0 0 0 0 0 0 0 0 0 0 0 0 0 0 0 0 0 0 0 0 0 0 0 0 0 0 0 0 0 0 0 0 0 0 1 1
0 0 0 0 0 0 0 0 0 0 0 0 0 0 0 0 0 0 0 0 0 0 0 0 0 0 0 0 0 0 0 0 0 0 0 0 0 0 0 0 0 0 0
0 0 0 0 0 0 0 0 0 0 0 0 0 0 0 0 0 0 0 0 0 0 0 0 0 0 0 0 0 0 0 0 0 0 0 0 0 0 0 0 0 0 0
Wind_Speed
8 7 7 7 7 7 7 7 7 6 7 8 7 7 6 6 6 5 4 5 5 4 4 4 4 3 2 2 2 2 2 3 3 2 2 2 2 3 2 2 3 3 4
8 7 7 7 7 8 8 7 7 7 7 7 7 7 7 7 6 7 7 6 6 6 5 5 5 4 4 3 3 3 3 4 3 4 2 2 3 3 3 3 3 3 3
8 8 8 8 8 8 8 7 7 7 7 7 7 8 8 7 7 7 7 7 7 7 6 7 6 5 5 4 4 4 3 3 3 3 3 2 2 2 2 3 3 3 4
9 9 9 9 9 9 8 8 8 8 8 8 8 8 8 8 8 7 7 7 7 6 6 7 7 7 7 7 5 6 4 4 3 3 3 3 3 2 2 3 3 3 3
10 10 10 8 8 8 8 8 8 8 8 8 8 7 7 7 7 8 8 8 7 7 7 7 8 9 10 8 6 6 6 5 4 4 4 3 4 3 4 3 4 4 4
10 10 9 8 8 8 8 8 8 8 7 7 8 8 8 7 9 12 10 8 7 8 8 7 7 9 11 12 12 11 10 8 7 6 5 6 7 6 4 4 4 3 4
10 9 9 9 9 9 9 8 9 9 8 8 8 8 8 8 10 11 13 8 8 8 8 7 6 7 9 8 10 12 12 14 12 8 8 9 8 7 5 5 6 6 6
10 9 9 10 10 8 8 9 9 7 7 7 7 8 7 8 10 11 11 9 7 8 8 8 8 7 7 7 7 7 8 9 11 10 9 10 9 7 7 7 6 6 7
9 9 9 10 9 8 9 9 8 7 7 7 6 7 8 8 9 10 9 6 6 8 7 7 8 8 8 9 7 8 8 8 9 12 12 12 12 11 8 5 5 5 7
7 7 7 8 8 9 9 7 6 6 7 6 6 6 7 7 8 10 10 5 6 6 6 7 9 10 9 8 8 8 9 8 6 6 7 9 10 10 11 10 8 8 7
5 4 4 5 6 6 6 5 5 5 5 5 6 5 6 6 7 9 10 6 7 6 6 6 6 9 10 10 9 8 10 8 5 6 6 6 6 6 7 8 9 9 9
5 4 3 3 4 4 4 4 4 5 5 4 4 3 3 3 5 6 9 10 7 6 6 5 4 6 8 9 8 9 10 7 5 5 5 6 6 7 7 7 9 10 11
6 4 3 3 2 2 4 4 3 3 3 3 3 3 3 2 2 5 7 8 9 6 5 5 5 6 7 6 9 10 8 5 5 6 7 7 7 7 6 6 7 8 10
6 4 4 3 3 3 2 2 2 2 3 2 2 3 2 1 2 2 2 3 5 5 5 4 4 5 4 5 5 5 5 5 5 6 7 7 6 6 6 6 6 6 6
6 5 4 3 3 3 3 2 2 1 2 2 2 2 2 2 2 2 2 2 2 3 2 2 2 2 3 3 4 4 4 4 5 6 6 7 7 7 7 5 5 5 6
6 5 4 3 3 3 3 3 5 4 4 3 2 1 1 1 1 0 1 2 2 2 2 2 2 3 4 4 4 4 4 5 5 6 6 6 7 7 7 6 6 6 8
6 4 3 3 3 3 3 3 2 3 5 5 4 3 2 2 2 2 1 1 1 2 1 2 2 3 4 4 4 5 5 5 5 5 6 6 7 7 7 7 6 7 8
5 5 4 3 2 2 3 2 2 2 2 3 4 5 5 4 4 4 3 3 2 1 1 2 3 3 4 4 4 5 5 5 5 5 6 6 6 6 7 7 7 8 8
5 4 3 3 3 3 3 3 3 3 2 2 3 4 5 4 4 4 3 1 1 1 2 3 3 4 4 4 5 5 5 5 6 5 5 6 6 6 7 7 7 9 9
5 8 6 4 4 4 4 4 3 3 3 3 3 3 3 3 3 3 2 1 1 2 3 3 4 4 4 5 5 5 5 5 6 6 6 6 6 6 7 9 8 8 8
4 5 7 5 4 4 4 4 3 3 3 3 3 3 3 2 2 2 2 2 2 3 4 4 4 5 5 5 5 6 7 6 6 6 6 6 6 6 7 7 8 8 8
4 4 4 4 4 4 3 3 3 3 3 3 3 3 3 2 2 3 3 3 3 4 4 5 5 5 5 5 5 6 6 7 7 6 7 7 7 7 7 7 7 7 8
4 4 4 4 4 4 4 3 3 3 3 3 3 3 4 3 4 4 4 5 5 5 5 4 5 5 5 5 5 5 6 6 6 7 7 7 7 7 7 8 10 10 10
4 4 4 4 3 3 3 3 3 3 3 3 3 3 4 4 4 5 5 5 5 5 5 5 5 7 9 7 6 5 5 6 7 7 9 8 8 8 7 8 9 10 10
4 4 4 3 3 3 3 3 3 3 3 3 3 4 4 4 5 5 5 6 7 7 8 7 6 7 10 11 10 8 7 8 7 7 7 7 9 9 9 10 9 10 10
5 4 4 3 3 3 3 3 3 3 3 4 4 4 4 5 5 5 6 6 7 7 8 7 9 11 12 10 11 10 9 8 8 8 7 7 8 8 9 8 11 10 10
Wind_Direction
167 167 164 169 170 169 176 184 180 174 173 175 177 176 177 176 172 172 179 173 177 181 182 184 193 179 175 174 168 168 173 167 200 247 249 266 270 275 292 287 274 271 279
171 167 167 167 168 175 184 187 181 180 181 181 178 179 185 183 180 184 190 187 189 193 196 192 201 189 188 186 184 191 194 193 197 231 248 251 253 264 272 281 283 275 272
170 171 172 174 178 185 189 186 182 182 182 181 181 187 191 189 188 194 193 194 198 202 199 199 205 193 202 201 199 204 205 201 203 219 245 244 257 262 272 273 272 274 275
174 177 184 189 190 191 188 185 185 184 185 188 192 196 196 194 194 196 197 201 206 210 208 208 208 204 210 208 208 212 206 202 202 219 242 252 256 253 247 264 279 268 277
178 185 193 191 188 187 187 188 188 189 194 192 192 197 197 196 202 200 201 206 210 216 220 220 221 219 218 212 211 211 204 209 211 222 238 248 253 244 244 238 261 279 274
183 192 189 184 186 190 193 190 188 193 192 188 195 198 200 209 209 204 201 208 209 215 224 228 231 231 230 224 223 216 203 207 216 221 234 241 252 247 244 238 250 270 279
187 189 186 185 191 194 193 189 194 195 191 196 200 200 207 215 212 210 209 207 213 218 223 227 234 232 223 229 232 231 226 224 218 219 235 242 248 242 234 245 237 240 253
188 191 188 189 195 191 188 193 196 190 191 198 201 203 208 220 215 215 213 212 220 224 223 222 228 236 228 222 228 235 237 235 230 229 235 243 245 243 232 244 254 257 259
190 195 192 190 193 190 195 199 194 187 193 198 198 201 211 226 217 214 208 210 225 233 231 228 227 235 237 225 226 239 249 252 242 234 235 244 248 247 237 240 244 248 266
190 193 186 183 186 192 197 197 188 187 197 195 202 207 214 226 222 215 204 210 226 236 237 235 230 232 238 225 224 234 248 254 254 255 248 253 254 254 237 229 236 245 257
169 160 162 174 185 190 186 181 175 184 190 196 207 214 219 228 231 220 208 211 223 233 239 240 235 227 232 229 224 230 242 251 254 253 258 262 261 256 249 236 229 232 243
116 122 142 157 175 179 165 166 167 176 190 203 207 220 225 225 228 228 214 216 221 226 237 240 237 228 230 232 231 240 247 250 253 255 258 260 261 260 257 249 239 234 237
105 110 114 118 129 141 156 161 153 163 183 199 200 223 237 229 235 230 218 215 217 221 237 241 241 235 233 237 238 242 243 239 240 248 254 258 257 261 266 264 258 248 249
99 98 97 103 100 94 105 124 137 160 180 190 201 219 229 226 243 246 236 229 224 229 244 250 244 241 240 252 259 251 239 233 234 246 257 265 270 267 264 261 265 264 264
82 81 79 83 97 99 94 89 113 133 173 186 207 205 203 230 250 227 209 229 229 229 220 228 235 242 249 255 259 259 252 242 243 249 256 265 267 267 267 262 256 257 257
73 65 67 70 75 84 87 73 60 73 68 74 97 149 209 224 341 20 232 252 257 187 170 235 251 255 259 263 268 272 265 259 256 257 258 260 265 267 270 267 257 257 261
73 68 62 67 71 77 85 88 70 51 58 60 51 53 48 23 21 15 3 2 40 135 171 265 272 274 273 271 270 270 271 273 270 263 263 264 265 267 268 269 266 263 265
66 65 67 66 69 73 77 76 78 75 44 22 26 31 28 28 30 32 49 70 52 52 271 278 283 281 279 279 278 278 279 281 276 274 272 271 270 271 270 270 268 267 270
54 49 52 54 55 58 60 63 64 66 60 36 25 18 20 28 38 41 62 56 343 304 293 286 283 282 281 281 280 279 278 278 278 275 272 271 271 273 273 273 272 272 270
50 54 60 57 54 53 53 54 50 46 43 38 33 12 4 25 29 20 20 346 312 300 296 291 288 286 285 284 284 283 281 279 280 276 273 272 272 271 273 275 275 275 272
53 53 57 61 56 53 52 51 48 44 36 25 8 4 16 20 0 343 333 326 314 305 302 296 292 292 290 289 288 286 284 282 279 278 279 278 276 274 273 274 276 275 277
61 58 55 58 56 55 51 49 48 45 31 15 355 357 1 2 350 341 332 322 314 307 304 299 294 290 288 289 289 288 285 283 282 282 281 280 277 275 275 274 274 274 273
61 62 58 52 51 50 47 39 32 26 17 10 4 3 0 354 348 343 334 329 326 322 317 307 299 298 300 296 292 288 287 288 289 288 285 281 278 275 273 272 273 275 275
58 59 56 48 43 41 35 25 19 16 14 9 6 3 358 350 343 339 335 330 327 323 320 315 308 306 308 308 300 293 289 293 295 288 282 278 277 274 272 272 272 274 276
56 55 51 45 39 34 27 20 14 12 9 5 1 356 349 344 338 335 334 330 327 323 322 319 314 311 310 308 306 304 303 297 290 291 285 275 272 272 272 273 274 277 276
51 49 43 35 28 23 16 7 1 357 355 352 348 344 339 335 332 331 332 331 328 323 321 319 318 317 313 310 308 309 300 293 289 285 282 277 273 270 271 271 276 277 277